| time (UTC) | temp F | wind direction | speed MPH | gust MPH | rain 1hr in | rain 24hr in | rain mn in | humidity % | barometer mb |
| 20260507093144 | 67 | 141 | 1.0 | 2.0 | 0.00 | 0.00 | 0.00 | 70 | 1034.3 |
| 20260507092643 | 66 | 208 | 0.0 | 1.0 | 0.00 | 0.00 | 0.00 | 72 | 1034.2 |
| 20260507092143 | 66 | 166 | 2.0 | 3.0 | 0.00 | 0.00 | 0.00 | 72 | 1034.2 |
| 20260507091642 | 66 | 184 | 1.0 | 2.0 | 0.00 | 0.00 | 0.00 | 71 | 1034.0 |
| 20260507091142 | 66 | 162 | 2.0 | 2.0 | 0.00 | 0.00 | 0.00 | 72 | 1034.0 |
| 20260507090641 | 66 | 160 | 1.0 | 2.0 | 0.00 | 0.00 | 0.00 | 72 | 1034.3 |
| 20260507090141 | 65 | 64 | 1.0 | 2.0 | 0.00 | 0.00 | 0.00 | 74 | 1033.9 |
| 20260507085640 | 66 | 49 | 1.0 | 2.0 | 0.00 | 0.00 | 0.00 | 74 | 1033.9 |
| 20260507085140 | 66 | 169 | 1.0 | 1.0 | 0.00 | 0.00 | 0.00 | 74 | 1033.9 |
| 20260507084639 | 65 | 187 | 3.0 | 4.0 | 0.00 | 0.00 | 0.00 | 75 | 1033.7 |
| 20260507084139 | 64 | 215 | 1.0 | 2.0 | 0.00 | 0.00 | 0.00 | 76 | 1033.9 |
| 20260507083638 | 64 | 145 | 1.0 | 1.0 | 0.00 | 0.00 | 0.00 | 77 | 1033.9 |
| 20260507083138 | 65 | 209 | 1.0 | 2.0 | 0.00 | 0.00 | 0.00 | 76 | 1033.7 |
| 20260507082637 | 64 | 146 | 2.0 | 3.0 | 0.00 | 0.00 | 0.00 | 78 | 1033.7 |
| 20260507082136 | 64 | 206 | 1.0 | 2.0 | 0.00 | 0.00 | 0.00 | 78 | 1033.5 |
| 20260507081636 | 63 | 233 | 5.0 | 7.0 | 0.00 | 0.00 | 0.00 | 78 | 1033.5 |
| 20260507081137 | 63 | 176 | 1.0 | 1.0 | 0.00 | 0.00 | 0.00 | 78 | 1033.6 |
| 20260507080626 | 63 | 169 | 0.0 | 0.0 | 0.00 | 0.00 | 0.00 | 79 | 1033.6 |
| 20260507080125 | 63 | 198 | 1.0 | 3.0 | 0.00 | 0.00 | 0.00 | 79 | 1033.5 |
| 20260507075625 | 63 | 182 | 2.0 | 2.0 | 0.00 | 0.00 | 0.00 | 80 | 1033.6 |
| 20260507075124 | 63 | 186 | 1.0 | 2.0 | 0.00 | 0.00 | 0.00 | 79 | 1033.4 |
| 20260507074624 | 63 | 159 | 3.0 | 4.0 | 0.00 | 0.00 | 0.00 | 79 | 1033.3 |
| 20260507074123 | 63 | 152 | 2.0 | 3.0 | 0.00 | 0.00 | 0.00 | 78 | 1033.2 |
| 20260507073623 | 63 | 162 | 1.0 | 1.0 | 0.00 | 0.00 | 0.00 | 79 | 1033.1 |
| 20260507073122 | 62 | 162 | 2.0 | 3.0 | 0.00 | 0.00 | 0.00 | 79 | 1033.0 |
| 20260507072621 | 62 | 176 | 1.0 | 1.0 | 0.00 | 0.00 | 0.00 | 79 | 1032.8 |
| 20260507072121 | 62 | 152 | 2.0 | 3.0 | 0.00 | 0.00 | 0.00 | 79 | 1033.0 |
| 20260507071620 | 62 | 171 | 2.0 | 4.0 | 0.00 | 0.00 | 0.00 | 80 | 1033.0 |
| 20260507071120 | 62 | 160 | 4.0 | 5.0 | 0.00 | 0.00 | 0.00 | 80 | 1032.8 |
| 20260507070619 | 62 | 142 | 2.0 | 4.0 | 0.00 | 0.00 | 0.00 | 80 | 1032.6 |
| 20260507070118 | 62 | 165 | 3.0 | 6.0 | 0.00 | 0.00 | 0.00 | 80 | 1033.0 |
| 20260507065618 | 62 | 153 | 5.0 | 7.0 | 0.00 | 0.00 | 0.00 | 80 | 1032.6 |
| 20260507065117 | 62 | 167 | 1.0 | 2.0 | 0.00 | 0.00 | 0.00 | 80 | 1032.7 |
| 20260507064617 | 62 | 155 | 4.0 | 6.0 | 0.00 | 0.00 | 0.00 | 79 | 1032.7 |
| 20260507064116 | 62 | 171 | 3.0 | 4.0 | 0.00 | 0.00 | 0.00 | 79 | 1032.6 |
| 20260507063616 | 62 | 175 | 3.0 | 4.0 | 0.00 | 0.00 | 0.00 | 79 | 1032.4 |
| 20260507063115 | 61 | 158 | 2.0 | 3.0 | 0.00 | 0.00 | 0.00 | 80 | 1032.4 |
| 20260507062615 | 62 | 172 | 5.0 | 7.0 | 0.00 | 0.00 | 0.00 | 79 | 1032.7 |
| 20260507062114 | 62 | 170 | 3.0 | 5.0 | 0.00 | 0.00 | 0.00 | 79 | 1032.6 |
| 20260507061613 | 62 | 179 | 3.0 | 5.0 | 0.00 | 0.00 | 0.00 | 79 | 1032.4 |
| 20260507061113 | 62 | 182 | 3.0 | 5.0 | 0.00 | 0.00 | 0.00 | 80 | 1032.5 |
| 20260507060612 | 61 | 176 | 1.0 | 2.0 | 0.00 | 0.00 | 0.00 | 80 | 1032.4 |
| 20260507060112 | 61 | 176 | 4.0 | 6.0 | 0.00 | 0.00 | 0.00 | 81 | 1032.2 |
| 20260507055611 | 60 | 177 | 2.0 | 3.0 | 0.00 | 0.00 | 0.00 | 81 | 1032.4 |
| 20260507055111 | 60 | 168 | 1.0 | 2.0 | 0.00 | 0.00 | 0.00 | 82 | 1032.0 |
| 20260507054610 | 60 | 166 | 2.0 | 2.0 | 0.00 | 0.00 | 0.00 | 82 | 1032.2 |
| 20260507054110 | 60 | 175 | 1.0 | 2.0 | 0.00 | 0.00 | 0.00 | 83 | 1031.9 |
| 20260507053609 | 59 | 169 | 1.0 | 2.0 | 0.00 | 0.00 | 0.00 | 83 | 1032.1 |
| 20260507053109 | 59 | 175 | 2.0 | 2.0 | 0.00 | 0.00 | 0.00 | 83 | 1032.0 |
| 20260507052608 | 60 | 177 | 2.0 | 3.0 | 0.00 | 0.00 | 0.00 | 83 | 1032.0 |
| 20260507052108 | 60 | 167 | 2.0 | 3.0 | 0.00 | 0.00 | 0.00 | 83 | 1031.7 |
| 20260507051607 | 60 | 173 | 1.0 | 1.0 | 0.00 | 0.00 | 0.00 | 83 | 1032.0 |
| 20260507051106 | 60 | 169 | 0.0 | 1.0 | 0.00 | 0.00 | 0.00 | 83 | 1032.0 |
| 20260507050606 | 60 | 167 | 1.0 | 2.0 | 0.00 | 0.00 | 0.00 | 82 | 1031.4 |
| 20260507050105 | 60 | 163 | 2.0 | 3.0 | 0.00 | 0.00 | 0.00 | 82 | 1031.8 |
| 20260507045605 | 60 | 168 | 0.0 | 0.0 | 0.00 | 0.00 | 0.00 | 82 | 1031.8 |
| 20260507045105 | 60 | 171 | 2.0 | 2.0 | 0.00 | 0.00 | 0.00 | 82 | 1031.9 |
| 20260507044604 | 60 | 169 | 1.0 | 2.0 | 0.00 | 0.00 | 0.00 | 82 | 1031.6 |
| 20260507044103 | 60 | 170 | 2.0 | 2.0 | 0.00 | 0.00 | 0.00 | 82 | 1031.8 |
| 20260507043603 | 60 | 171 | 2.0 | 2.0 | 0.00 | 0.00 | 0.00 | 81 | 1031.5 |
| 20260507043102 | 60 | 174 | 1.0 | 2.0 | 0.00 | 0.00 | 0.00 | 81 | 1031.8 |
| 20260507042602 | 60 | 167 | 1.0 | 2.0 | 0.00 | 0.00 | 0.00 | 80 | 1031.6 |
| 20260507042101 | 60 | 165 | 2.0 | 3.0 | 0.00 | 0.00 | 0.00 | 80 | 1031.4 |
| 20260507041601 | 60 | 169 | 1.0 | 1.0 | 0.00 | 0.00 | 0.00 | 79 | 1031.5 |
| 20260507041100 | 60 | 167 | 0.0 | 1.0 | 0.00 | 0.00 | 0.00 | 79 | 1031.4 |
| 20260507040600 | 61 | 166 | 1.0 | 1.0 | 0.00 | 0.00 | 0.00 | 79 | 1031.4 |
| 20260507040100 | 61 | 175 | 2.0 | 4.0 | 0.00 | 0.00 | 0.00 | 79 | 1031.2 |
| 20260507035559 | 61 | 165 | 2.0 | 2.0 | 0.00 | 0.00 | 0.00 | 78 | 1031.1 |
| 20260507035058 | 61 | 173 | 2.0 | 3.0 | 0.00 | 0.00 | 0.00 | 78 | 1031.2 |
| 20260507034557 | 61 | 183 | 3.0 | 4.0 | 0.00 | 0.00 | 0.00 | 78 | 1031.1 |
| 20260507034057 | 61 | 163 | 2.0 | 2.0 | 0.00 | 0.00 | 0.00 | 77 | 1031.3 |
| 20260507033556 | 61 | 167 | 1.0 | 1.0 | 0.00 | 0.00 | 0.00 | 77 | 1031.1 |
| 20260507033056 | 61 | 164 | 1.0 | 2.0 | 0.00 | 0.00 | 0.00 | 78 | 1030.9 |
| 20260507032555 | 61 | 167 | 0.0 | 1.0 | 0.00 | 0.00 | 0.00 | 78 | 1031.1 |
| 20260507032055 | 61 | 166 | 0.0 | 1.0 | 0.00 | 0.00 | 0.00 | 78 | 1030.9 |
| 20260507031554 | 61 | 167 | 1.0 | 1.0 | 0.00 | 0.00 | 0.00 | 78 | 1030.7 |
| 20260507031053 | 61 | 167 | 1.0 | 1.0 | 0.00 | 0.00 | 0.00 | 78 | 1030.7 |
| 20260507030553 | 61 | 167 | 0.0 | 1.0 | 0.00 | 0.00 | 0.00 | 78 | 1030.9 |
| 20260507030052 | 61 | 166 | 0.0 | 0.0 | 0.00 | 0.00 | 0.00 | 78 | 1030.6 |
| 20260507025552 | 61 | 166 | 0.0 | 1.0 | 0.00 | 0.00 | 0.00 | 78 | 1030.7 |
| 20260507025052 | 61 | 167 | 0.0 | 0.0 | 0.00 | 0.00 | 0.00 | 78 | 1030.7 |
| 20260507024551 | 60 | 166 | 0.0 | 1.0 | 0.00 | 0.00 | 0.00 | 78 | 1030.9 |
| 20260507024050 | 60 | 166 | 0.0 | 0.0 | 0.00 | 0.00 | 0.00 | 79 | 1030.7 |
| 20260507023550 | 59 | 166 | 0.0 | 0.0 | 0.00 | 0.00 | 0.00 | 80 | 1030.7 |
| 20260507023049 | 59 | 166 | 0.0 | 0.0 | 0.00 | 0.00 | 0.00 | 81 | 1030.7 |
| 20260507022549 | 59 | 166 | 0.0 | 0.0 | 0.00 | 0.00 | 0.00 | 81 | 1030.4 |
| 20260507022048 | 59 | 166 | 0.0 | 0.0 | 0.00 | 0.00 | 0.00 | 81 | 1030.6 |
| 20260507021548 | 59 | 167 | 0.0 | 0.0 | 0.00 | 0.00 | 0.00 | 81 | 1030.6 |
| 20260507021047 | 59 | 167 | 0.0 | 0.0 | 0.00 | 0.00 | 0.00 | 81 | 1030.5 |
| 20260507020547 | 59 | 167 | 0.0 | 0.0 | 0.00 | 0.00 | 0.00 | 81 | 1030.5 |
| 20260507020046 | 59 | 167 | 0.0 | 1.0 | 0.00 | 0.00 | 0.00 | 81 | 1030.7 |
| 20260507015546 | 59 | 167 | 0.0 | 0.0 | 0.00 | 0.00 | 0.00 | 81 | 1030.5 |
| 20260507015045 | 59 | 167 | 0.0 | 0.0 | 0.00 | 0.00 | 0.00 | 81 | 1030.5 |
| 20260507014545 | 59 | 168 | 0.0 | 0.0 | 0.00 | 0.00 | 0.00 | 81 | 1030.6 |
| 20260507014044 | 59 | 164 | 0.0 | 1.0 | 0.00 | 0.00 | 0.00 | 81 | 1030.5 |
| 20260507013544 | 59 | 167 | 0.0 | 0.0 | 0.00 | 0.00 | 0.00 | 81 | 1030.5 |
| 20260507013043 | 58 | 167 | 0.0 | 0.0 | 0.00 | 0.00 | 0.00 | 81 | 1030.5 |
| 20260507012543 | 59 | 167 | 0.0 | 0.0 | 0.00 | 0.00 | 0.00 | 80 | 1030.4 |
| 20260507012042 | 59 | 167 | 0.0 | 0.0 | 0.00 | 0.00 | 0.00 | 80 | 1030.1 |
| 20260507011542 | 59 | 167 | 0.0 | 0.0 | 0.00 | 0.00 | 0.00 | 80 | 1030.6 |
| 20260507011041 | 59 | 167 | 0.0 | 1.0 | 0.00 | 0.00 | 0.00 | 80 | 1030.5 |
| 20260507010541 | 59 | 168 | 0.0 | 0.0 | 0.00 | 0.00 | 0.00 | 80 | 1030.3 |
| 20260507010040 | 59 | 168 | 0.0 | 0.0 | 0.00 | 0.00 | 0.00 | 79 | 1030.5 |
| 20260507005539 | 60 | 168 | 0.0 | 0.0 | 0.00 | 0.00 | 0.00 | 78 | 1030.3 |
| 20260507005039 | 60 | 168 | 0.0 | 0.0 | 0.00 | 0.00 | 0.00 | 77 | 1030.3 |
| 20260507004038 | 60 | 169 | 0.0 | 0.0 | 0.00 | 0.00 | 0.00 | 77 | 1030.2 |
| 20260507003537 | 60 | 169 | 0.0 | 0.0 | 0.00 | 0.00 | 0.00 | 76 | 1030.3 |
| 20260507003037 | 61 | 169 | 0.0 | 0.0 | 0.00 | 0.00 | 0.00 | 76 | 1030.3 |
| 20260507002536 | 60 | 169 | 0.0 | 0.0 | 0.00 | 0.00 | 0.00 | 76 | 1030.4 |
| 20260507002036 | 60 | 170 | 0.0 | 0.0 | 0.00 | 0.00 | 0.00 | 76 | 1030.4 |
| 20260507001535 | 61 | 173 | 0.0 | 0.0 | 0.00 | 0.00 | 0.00 | 75 | 1030.2 |
| 20260507001035 | 61 | 173 | 0.0 | 0.0 | 0.00 | 0.00 | 0.00 | 74 | 1030.2 |
| 20260507000534 | 61 | 182 | 0.0 | 0.0 | 0.00 | 0.00 | 0.00 | 74 | 1030.1 |
| 20260507000033 | 62 | 182 | 0.0 | 0.0 | 0.00 | 0.00 | 0.00 | 73 | 1030.1 |
| 20260506235533 | 62 | 183 | 0.0 | 0.0 | 0.00 | 0.00 | 0.00 | 72 | 1030.3 |
| 20260506235032 | 63 | 183 | 0.0 | 0.0 | 0.00 | 0.00 | 0.00 | 71 | 1030.3 |
| 20260506234532 | 63 | 175 | 0.0 | 0.0 | 0.00 | 0.00 | 0.00 | 71 | 1030.8 |
| 20260506234031 | 63 | 169 | 0.0 | 0.0 | 0.00 | 0.00 | 0.00 | 71 | 1030.6 |
| 20260506233531 | 63 | 174 | 0.0 | 0.0 | 0.00 | 0.00 | 0.00 | 70 | 1030.4 |
| 20260506233030 | 64 | 191 | 1.0 | 1.0 | 0.00 | 0.00 | 0.00 | 69 | 1030.3 |
| 20260506232530 | 64 | 184 | 0.0 | 0.0 | 0.00 | 0.00 | 0.00 | 69 | 1030.2 |
| 20260506232029 | 64 | 180 | 1.0 | 1.0 | 0.00 | 0.00 | 0.00 | 69 | 1030.2 |
| 20260506231529 | 64 | 172 | 0.0 | 0.0 | 0.00 | 0.00 | 0.00 | 69 | 1030.2 |
| 20260506231028 | 64 | 170 | 0.0 | 0.0 | 0.00 | 0.00 | 0.00 | 68 | 1030.3 |
| 20260506230528 | 65 | 214 | 1.0 | 2.0 | 0.00 | 0.00 | 0.00 | 68 | 1030.1 |
| 20260506230027 | 64 | 197 | 0.0 | 1.0 | 0.00 | 0.00 | 0.00 | 68 | 1030.3 |
| 20260506225527 | 64 | 200 | 1.0 | 2.0 | 0.00 | 0.00 | 0.00 | 68 | 1030.7 |
| 20260506225026 | 64 | 179 | 1.0 | 1.0 | 0.00 | 0.00 | 0.00 | 68 | 1030.4 |
| 20260506224526 | 64 | 182 | 0.0 | 0.0 | 0.00 | 0.00 | 0.00 | 69 | 1030.4 |
| 20260506224025 | 64 | 189 | 0.0 | 0.0 | 0.00 | 0.00 | 0.00 | 69 | 1030.4 |
| 20260506223525 | 64 | 189 | 0.0 | 0.0 | 0.00 | 0.00 | 0.00 | 68 | 1030.1 |
| 20260506223024 | 65 | 189 | 0.0 | 0.0 | 0.00 | 0.00 | 0.00 | 67 | 1030.1 |
| 20260506222524 | 65 | 185 | 0.0 | 1.0 | 0.00 | 0.00 | 0.00 | 67 | 1030.2 |
| 20260506222023 | 65 | 194 | 0.0 | 1.0 | 0.00 | 0.00 | 0.00 | 66 | 1030.1 |
| 20260506221522 | 65 | 181 | 0.0 | 1.0 | 0.00 | 0.00 | 0.00 | 66 | 1030.2 |
| 20260506221022 | 65 | 186 | 0.0 | 0.0 | 0.00 | 0.00 | 0.00 | 66 | 1030.3 |
| 20260506220521 | 65 | 194 | 0.0 | 1.0 | 0.00 | 0.00 | 0.00 | 66 | 1030.3 |
| 20260506220021 | 65 | 159 | 1.0 | 2.0 | 0.00 | 0.00 | 0.00 | 65 | 1030.2 |
| 20260506215520 | 65 | 183 | 0.0 | 1.0 | 0.00 | 0.00 | 0.00 | 65 | 1030.1 |
| 20260506215020 | 65 | 196 | 0.0 | 1.0 | 0.00 | 0.00 | 0.00 | 65 | 1030.1 |
| 20260506214519 | 66 | 192 | 0.0 | 0.0 | 0.00 | 0.00 | 0.00 | 65 | 1030.1 |
| 20260506214019 | 66 | 191 | 0.0 | 0.0 | 0.00 | 0.00 | 0.00 | 64 | 1030.0 |
| 20260506213518 | 66 | 189 | 0.0 | 1.0 | 0.00 | 0.00 | 0.00 | 64 | 1030.1 |
| 20260506213017 | 66 | 198 | 1.0 | 1.0 | 0.00 | 0.00 | 0.00 | 64 | 1030.3 |
| 20260506212517 | 66 | 190 | 1.0 | 2.0 | 0.00 | 0.00 | 0.00 | 64 | 1030.2 |
| 20260506212016 | 66 | 187 | 1.0 | 1.0 | 0.00 | 0.00 | 0.00 | 64 | 1030.4 |
| 20260506211516 | 67 | 183 | 0.0 | 0.0 | 0.00 | 0.00 | 0.00 | 64 | 1030.2 |
| 20260506211015 | 67 | 181 | 0.0 | 0.0 | 0.00 | 0.00 | 0.00 | 64 | 1030.2 |
| 20260506210515 | 67 | 193 | 0.0 | 0.0 | 0.00 | 0.00 | 0.00 | 63 | 1030.4 |
| 20260506210014 | 67 | 181 | 1.0 | 2.0 | 0.00 | 0.00 | 0.00 | 63 | 1030.2 |
| 20260506205512 | 67 | 198 | 2.0 | 2.0 | 0.00 | 0.00 | 0.00 | 63 | 1030.1 |
| 20260506205011 | 67 | 192 | 2.0 | 2.0 | 0.00 | 0.00 | 0.00 | 64 | 1030.2 |
| 20260506204511 | 66 | 178 | 0.0 | 1.0 | 0.00 | 0.00 | 0.00 | 64 | 1030.1 |
| 20260506204010 | 66 | 183 | 0.0 | 0.0 | 0.00 | 0.00 | 0.00 | 65 | 1030.0 |
| 20260506203510 | 66 | 182 | 0.0 | 1.0 | 0.00 | 0.00 | 0.00 | 64 | 1030.0 |
| 20260506203009 | 66 | 182 | 0.0 | 0.0 | 0.00 | 0.00 | 0.00 | 65 | 1030.2 |
| 20260506202508 | 66 | 193 | 0.0 | 1.0 | 0.00 | 0.00 | 0.00 | 65 | 1029.8 |
| 20260506202008 | 66 | 167 | 0.0 | 0.0 | 0.00 | 0.00 | 0.00 | 65 | 1030.0 |
| 20260506201507 | 66 | 163 | 0.0 | 0.0 | 0.00 | 0.00 | 0.00 | 65 | 1030.0 |
| 20260506201007 | 66 | 169 | 0.0 | 1.0 | 0.00 | 0.00 | 0.00 | 65 | 1030.1 |
| 20260506200506 | 66 | 171 | 0.0 | 0.0 | 0.00 | 0.00 | 0.00 | 64 | 1029.9 |
| 20260506200005 | 67 | 178 | 0.0 | 0.0 | 0.00 | 0.00 | 0.00 | 64 | 1029.9 |
| 20260506195504 | 67 | 193 | 0.0 | 0.0 | 0.00 | 0.00 | 0.00 | 62 | 1030.0 |
| 20260506195004 | 68 | 176 | 0.0 | 0.0 | 0.00 | 0.00 | 0.00 | 61 | 1029.9 |
| 20260506194503 | 68 | 171 | 1.0 | 2.0 | 0.00 | 0.00 | 0.00 | 61 | 1030.0 |
| 20260506194003 | 68 | 186 | 3.0 | 4.0 | 0.00 | 0.00 | 0.00 | 61 | 1030.0 |
| 20260506193502 | 69 | 171 | 1.0 | 1.0 | 0.00 | 0.00 | 0.00 | 60 | 1030.0 |
| 20260506193001 | 69 | 185 | 0.0 | 1.0 | 0.00 | 0.00 | 0.00 | 60 | 1029.6 |
| 20260506192501 | 69 | 177 | 0.0 | 1.0 | 0.00 | 0.00 | 0.00 | 60 | 1029.9 |
| 20260506192000 | 69 | 162 | 0.0 | 0.0 | 0.00 | 0.00 | 0.00 | 60 | 1029.7 |
| 20260506191459 | 69 | 160 | 2.0 | 3.0 | 0.00 | 0.00 | 0.00 | 59 | 1029.7 |
| 20260506190959 | 69 | 195 | 2.0 | 3.0 | 0.00 | 0.00 | 0.00 | 59 | 1029.8 |
| 20260506190458 | 69 | 181 | 0.0 | 0.0 | 0.00 | 0.00 | 0.00 | 59 | 1029.8 |
| 20260506185958 | 69 | 194 | 0.0 | 1.0 | 0.00 | 0.00 | 0.00 | 59 | 1029.8 |
| 20260506185457 | 70 | 167 | 1.0 | 3.0 | 0.00 | 0.00 | 0.00 | 58 | 1029.6 |
| 20260506184956 | 70 | 159 | 0.0 | 0.0 | 0.00 | 0.00 | 0.00 | 58 | 1029.4 |
| 20260506184456 | 70 | 172 | 2.0 | 3.0 | 0.00 | 0.00 | 0.00 | 58 | 1029.5 |
| 20260506183955 | 70 | 154 | 3.0 | 4.0 | 0.00 | 0.00 | 0.00 | 58 | 1029.7 |
| 20260506183455 | 70 | 181 | 1.0 | 2.0 | 0.00 | 0.00 | 0.00 | 59 | 1029.5 |
| 20260506182954 | 70 | 164 | 0.0 | 1.0 | 0.00 | 0.00 | 0.00 | 58 | 1029.4 |
| 20260506182454 | 71 | 179 | 1.0 | 2.0 | 0.00 | 0.00 | 0.00 | 58 | 1029.5 |
| 20260506181953 | 71 | 134 | 1.0 | 1.0 | 0.00 | 0.00 | 0.00 | 58 | 1029.5 |
| 20260506181453 | 71 | 149 | 1.0 | 2.0 | 0.00 | 0.00 | 0.00 | 58 | 1029.4 |
| 20260506180952 | 71 | 187 | 1.0 | 2.0 | 0.00 | 0.00 | 0.00 | 57 | 1029.3 |
| 20260506180451 | 71 | 186 | 0.0 | 1.0 | 0.00 | 0.00 | 0.00 | 57 | 1029.2 |
| 20260506175951 | 72 | 188 | 3.0 | 3.0 | 0.00 | 0.00 | 0.00 | 56 | 1029.4 |
| 20260506175450 | 72 | 202 | 2.0 | 3.0 | 0.00 | 0.00 | 0.00 | 55 | 1029.4 |
| 20260506174950 | 72 | 194 | 1.0 | 2.0 | 0.00 | 0.00 | 0.00 | 55 | 1029.5 |
| 20260506174449 | 72 | 188 | 2.0 | 2.0 | 0.00 | 0.00 | 0.00 | 54 | 1029.3 |
| 20260506173948 | 72 | 174 | 2.0 | 3.0 | 0.00 | 0.00 | 0.00 | 54 | 1029.4 |
| 20260506173448 | 73 | 185 | 4.0 | 6.0 | 0.00 | 0.00 | 0.00 | 54 | 1029.1 |
| 20260506172947 | 73 | 149 | 3.0 | 4.0 | 0.00 | 0.00 | 0.00 | 54 | 1029.2 |
| 20260506172447 | 73 | 213 | 2.0 | 3.0 | 0.00 | 0.00 | 0.00 | 54 | 1029.4 |
| 20260506171946 | 73 | 162 | 2.0 | 3.0 | 0.00 | 0.00 | 0.00 | 54 | 1029.3 |
| 20260506171446 | 73 | 164 | 3.0 | 3.0 | 0.00 | 0.00 | 0.00 | 54 | 1029.3 |
| 20260506170945 | 73 | 204 | 1.0 | 2.0 | 0.00 | 0.00 | 0.00 | 54 | 1029.2 |
| 20260506170445 | 73 | 173 | 1.0 | 2.0 | 0.00 | 0.00 | 0.00 | 54 | 1029.2 |
| 20260506165944 | 73 | 194 | 1.0 | 1.0 | 0.00 | 0.00 | 0.00 | 54 | 1029.4 |
| 20260506165443 | 73 | 175 | 2.0 | 2.0 | 0.00 | 0.00 | 0.00 | 53 | 1029.4 |
| 20260506164943 | 73 | 192 | 1.0 | 2.0 | 0.00 | 0.00 | 0.00 | 53 | 1029.4 |
| 20260506164442 | 73 | 211 | 2.0 | 3.0 | 0.00 | 0.00 | 0.00 | 54 | 1029.2 |
| 20260506163942 | 73 | 198 | 1.0 | 2.0 | 0.00 | 0.00 | 0.00 | 53 | 1029.4 |
| 20260506163441 | 73 | 167 | 1.0 | 2.0 | 0.00 | 0.00 | 0.00 | 53 | 1029.2 |
| 20260506162941 | 73 | 176 | 1.0 | 1.0 | 0.00 | 0.00 | 0.00 | 53 | 1029.5 |
| 20260506162440 | 73 | 212 | 2.0 | 3.0 | 0.00 | 0.00 | 0.00 | 53 | 1029.8 |
| 20260506161939 | 73 | 221 | 1.0 | 2.0 | 0.00 | 0.00 | 0.00 | 53 | 1029.7 |
| 20260506161439 | 74 | 189 | 2.0 | 4.0 | 0.00 | 0.00 | 0.00 | 52 | 1029.7 |
| 20260506160938 | 74 | 224 | 4.0 | 5.0 | 0.00 | 0.00 | 0.00 | 52 | 1029.5 |
| 20260506160438 | 74 | 191 | 2.0 | 3.0 | 0.00 | 0.00 | 0.00 | 51 | 1029.7 |
| 20260506155937 | 74 | 104 | 2.0 | 2.0 | 0.00 | 0.00 | 0.00 | 51 | 1029.6 |
| 20260506155437 | 74 | 193 | 1.0 | 1.0 | 0.00 | 0.00 | 0.00 | 51 | 1029.6 |
| 20260506154936 | 74 | 171 | 3.0 | 4.0 | 0.00 | 0.00 | 0.00 | 50 | 1029.8 |
| 20260506154435 | 74 | 172 | 3.0 | 4.0 | 0.00 | 0.00 | 0.00 | 50 | 1029.8 |
| 20260506153935 | 74 | 204 | 1.0 | 2.0 | 0.00 | 0.00 | 0.00 | 49 | 1029.7 |
| 20260506153434 | 75 | 176 | 1.0 | 1.0 | 0.00 | 0.00 | 0.00 | 49 | 1029.8 |
| 20260506152934 | 75 | 151 | 3.0 | 5.0 | 0.00 | 0.00 | 0.00 | 48 | 1029.9 |
| 20260506152433 | 75 | 177 | 1.0 | 3.0 | 0.00 | 0.00 | 0.00 | 48 | 1030.0 |
| 20260506151933 | 75 | 169 | 0.0 | 1.0 | 0.00 | 0.00 | 0.00 | 48 | 1029.7 |
| 20260506151432 | 76 | 157 | 2.0 | 3.0 | 0.00 | 0.00 | 0.00 | 48 | 1029.9 |
| 20260506150932 | 76 | 255 | 2.0 | 2.0 | 0.00 | 0.00 | 0.00 | 48 | 1029.9 |
| 20260506150431 | 76 | 148 | 1.0 | 2.0 | 0.00 | 0.00 | 0.00 | 48 | 1029.9 |
| 20260506145930 | 76 | 254 | 2.0 | 3.0 | 0.00 | 0.00 | 0.00 | 48 | 1030.0 |
| 20260506145430 | 77 | 186 | 2.0 | 3.0 | 0.00 | 0.00 | 0.00 | 47 | 1030.0 |
| 20260506144929 | 76 | 102 | 1.0 | 2.0 | 0.00 | 0.00 | 0.00 | 47 | 1030.0 |
| 20260506144429 | 77 | 164 | 6.0 | 8.0 | 0.00 | 0.00 | 0.00 | 46 | 1030.0 |
| 20260506143928 | 77 | 146 | 1.0 | 1.0 | 0.00 | 0.00 | 0.00 | 47 | 1030.2 |
| 20260506143428 | 77 | 124 | 2.0 | 2.0 | 0.00 | 0.00 | 0.00 | 46 | 1030.2 |
| 20260506142927 | 77 | 173 | 4.0 | 6.0 | 0.00 | 0.00 | 0.00 | 45 | 1030.1 |
| 20260506142426 | 75 | 176 | 0.0 | 0.0 | 0.00 | 0.00 | 0.00 | 47 | 1030.3 |
| 20260506141926 | 75 | 201 | 1.0 | 1.0 | 0.00 | 0.00 | 0.00 | 49 | 1030.3 |
| 20260506141425 | 75 | 83 | 1.0 | 2.0 | 0.00 | 0.00 | 0.00 | 48 | 1030.3 |
| 20260506140925 | 75 | 183 | 3.0 | 4.0 | 0.00 | 0.00 | 0.00 | 49 | 1030.1 |
| 20260506140424 | 75 | 222 | 2.0 | 3.0 | 0.00 | 0.00 | 0.00 | 49 | 1030.3 |
| 20260506135924 | 76 | 193 | 2.0 | 3.0 | 0.00 | 0.00 | 0.00 | 46 | 1030.5 |
| 20260506135423 | 77 | 123 | 2.0 | 2.0 | 0.00 | 0.00 | 0.00 | 45 | 1030.4 |
| 20260506134922 | 76 | 205 | 2.0 | 4.0 | 0.00 | 0.00 | 0.00 | 49 | 1030.3 |
| 20260506134422 | 77 | 183 | 4.0 | 6.0 | 0.00 | 0.00 | 0.00 | 47 | 1030.5 |
| 20260506133421 | 78 | 191 | 1.0 | 1.0 | 0.00 | 0.00 | 0.00 | 49 | 1030.5 |
| 20260506132920 | 77 | 216 | 2.0 | 3.0 | 0.00 | 0.00 | 0.00 | 47 | 1030.3 |
| 20260506132419 | 76 | 160 | 3.0 | 8.0 | 0.00 | 0.00 | 0.00 | 48 | 1030.6 |
| 20260506131919 | 76 | 243 | 3.0 | 5.0 | 0.00 | 0.00 | 0.00 | 50 | 1030.4 |
| 20260506131418 | 76 | 266 | 3.0 | 4.0 | 0.00 | 0.00 | 0.00 | 49 | 1030.4 |
| 20260506130918 | 76 | 148 | 2.0 | 3.0 | 0.00 | 0.00 | 0.00 | 48 | 1030.3 |
| 20260506130417 | 76 | 155 | 1.0 | 2.0 | 0.00 | 0.00 | 0.00 | 48 | 1030.6 |
| 20260506125917 | 76 | 166 | 3.0 | 6.0 | 0.00 | 0.00 | 0.00 | 49 | 1030.4 |
| 20260506125416 | 76 | 214 | 2.0 | 3.0 | 0.00 | 0.00 | 0.00 | 50 | 1030.6 |
| 20260506124915 | 76 | 179 | 2.0 | 5.0 | 0.00 | 0.00 | 0.00 | 50 | 1030.6 |
| 20260506124415 | 76 | 200 | 1.0 | 4.0 | 0.00 | 0.00 | 0.00 | 51 | 1030.6 |
| 20260506123914 | 75 | 136 | 2.0 | 3.0 | 0.00 | 0.00 | 0.00 | 52 | 1030.7 |
| 20260506123414 | 74 | 144 | 1.0 | 1.0 | 0.00 | 0.00 | 0.00 | 52 | 1031.1 |
| 20260506122913 | 74 | 141 | 5.0 | 6.0 | 0.00 | 0.00 | 0.00 | 53 | 1030.9 |
| 20260506122413 | 76 | 130 | 3.0 | 4.0 | 0.00 | 0.00 | 0.00 | 52 | 1030.8 |
| 20260506121912 | 76 | 137 | 3.0 | 4.0 | 0.00 | 0.00 | 0.00 | 53 | 1030.9 |
| 20260506121412 | 74 | 177 | 2.0 | 4.0 | 0.00 | 0.00 | 0.00 | 52 | 1030.9 |
| 20260506120911 | 75 | 133 | 3.0 | 3.0 | 0.00 | 0.00 | 0.00 | 54 | 1030.6 |
| 20260506120411 | 75 | 185 | 2.0 | 4.0 | 0.00 | 0.00 | 0.00 | 54 | 1030.9 |
| 20260506115910 | 75 | 129 | 2.0 | 3.0 | 0.00 | 0.00 | 0.00 | 53 | 1030.9 |
| 20260506115409 | 75 | 184 | 4.0 | 5.0 | 0.00 | 0.00 | 0.00 | 52 | 1030.8 |
| 20260506114909 | 74 | 203 | 3.0 | 4.0 | 0.00 | 0.00 | 0.00 | 54 | 1030.7 |
| 20260506114408 | 74 | 180 | 2.0 | 3.0 | 0.00 | 0.00 | 0.00 | 54 | 1030.7 |
| 20260506113907 | 74 | 257 | 3.0 | 3.0 | 0.00 | 0.00 | 0.00 | 53 | 1030.9 |
| 20260506113407 | 74 | 168 | 1.0 | 2.0 | 0.00 | 0.00 | 0.00 | 55 | 1030.7 |
| 20260506112906 | 74 | 187 | 4.0 | 5.0 | 0.00 | 0.00 | 0.00 | 56 | 1030.7 |
| 20260506112406 | 74 | 166 | 3.0 | 4.0 | 0.00 | 0.00 | 0.00 | 55 | 1030.8 |
| 20260506111905 | 74 | 160 | 1.0 | 2.0 | 0.00 | 0.00 | 0.00 | 55 | 1031.0 |
| 20260506111405 | 74 | 162 | 2.0 | 3.0 | 0.00 | 0.00 | 0.00 | 56 | 1030.6 |
| 20260506110904 | 74 | 166 | 2.0 | 3.0 | 0.00 | 0.00 | 0.00 | 55 | 1030.8 |
| 20260506110403 | 74 | 114 | 4.0 | 9.0 | 0.00 | 0.00 | 0.00 | 56 | 1030.9 |
| 20260506105903 | 73 | 312 | 2.0 | 4.0 | 0.00 | 0.00 | 0.00 | 56 | 1031.0 |
| 20260506105402 | 73 | 162 | 3.0 | 3.0 | 0.00 | 0.00 | 0.00 | 56 | 1030.8 |
| 20260506104902 | 73 | 80 | 4.0 | 6.0 | 0.00 | 0.00 | 0.00 | 57 | 1030.9 |
| 20260506104401 | 72 | 205 | 3.0 | 6.0 | 0.00 | 0.00 | 0.00 | 56 | 1030.8 |
| 20260506103901 | 74 | 182 | 1.0 | 2.0 | 0.00 | 0.00 | 0.00 | 56 | 1030.8 |
| 20260506103400 | 74 | 13 | 3.0 | 4.0 | 0.00 | 0.00 | 0.00 | 54 | 1030.7 |
| 20260506102859 | 73 | 159 | 3.0 | 4.0 | 0.00 | 0.00 | 0.00 | 56 | 1031.0 |
| 20260506102359 | 74 | 187 | 3.0 | 5.0 | 0.00 | 0.00 | 0.00 | 55 | 1031.2 |
| 20260506101858 | 72 | 185 | 4.0 | 7.0 | 0.00 | 0.00 | 0.00 | 57 | 1030.9 |
| 20260506101358 | 73 | 213 | 2.0 | 3.0 | 0.00 | 0.00 | 0.00 | 58 | 1031.0 |
| 20260506100857 | 71 | 276 | 3.0 | 4.0 | 0.00 | 0.00 | 0.00 | 58 | 1030.8 |
| 20260506100357 | 72 | 189 | 4.0 | 7.0 | 0.00 | 0.00 | 0.00 | 58 | 1031.0 |
| 20260506095856 | 71 | 136 | 3.0 | 5.0 | 0.00 | 0.00 | 0.00 | 59 | 1031.2 |
| 20260506095356 | 70 | 190 | 3.0 | 4.0 | 0.00 | 0.00 | 0.00 | 59 | 1031.0 |
| 20260506094855 | 71 | 339 | 3.0 | 4.0 | 0.00 | 0.00 | 0.00 | 59 | 1030.9 |
| 20260506094355 | 71 | 216 | 5.0 | 7.0 | 0.00 | 0.00 | 0.00 | 58 | 1031.1 |
| 20260506093854 | 71 | 166 | 0.0 | 1.0 | 0.00 | 0.00 | 0.00 | 60 | 1030.9 |